Location: Quedlinburg
(51.7921°N, 11.1414°E)
Time: 08:33:43
(UTC+02:00)

RS-44 - Pass Details

Date: 23 March 2026
Orbit: 1175 x 1510 km, 82.5° (Epoch: 13 April)

Event Time Altitude Azimuth Distance (km) Brightness Sun altitude
Rises 03:31:37 0° 345° (NNW) 4,472 ? -23.9°
Reaches altitude 10° 03:34:47 10° 335° (NNW) 3,537 ? -23.5°
Maximum altitude 03:41:48 30° 280° (W) 2,400 ? -22.6°
Enters shadow 03:42:52 29° 268° (W) 2,441 ? -22.5°
